"Pseudo-MPEC" for P21Ok6U

Created 2023 Nov 21 6:22:10 UT using Find_Orb

Click here for an explanation of pseudo-MPECs

 
 Astrometry: 
     P21Ok6U* C2023 11 18n`]G_.p#dX+tolE2N+IfbgK!+Tp!R;ifR6X,j_n%KBeub'3)GgyqF52
     P21Ok6U  C2023 11 18CQ6^uV9MFqCSaE39mK5Xw9pev=Rv5O'%4[')'xM49LHmfor!MMS@F52
     P21Ok6U  C2023 11 18C=aJ9P@/hwjIKG-::Zb-WY!^,.XAstrometryPLukw4AQUPsRtB2F52
     P21Ok6U  C2023 11 18yC@97TUDTfredacted;#/$d]:jX_AGL0y.^ut7nQUH`SV'1f_u*BF52
     P21Ok6U  C2023 11 18iNUNJ.PXrP@VKclick:mD/xS19-h@rT%hereG86@WD3LuED%?T*YF51
     P21Ok6U  C2023 11 18G(B\T9CvY;*8bv:RKp;8Bj7@oVtSjA\2u@4;GVF`rBTJ9tTrD06mF51
     P21Ok6U KC2023 11 19f0F0+\Cfor'Tc;oZc%#w#W!p7uJd7HtMo:7oKCRHJ,e?VE([_3]=H21
     P21Ok6U KC2023 11 194S.0#r!%F)ta@ifcu4g\S-8yiMYO`Fuo.+L',+Mi%h0HTMDBovVOH21
     P21Ok6U KC2023 11 19Ek.NR$N'M]2ydr*kbcZL1hSUeH[;$Sj$yR,+0[2]D6\p@'2];8n^H21
     P21Ok6U KC2023 11 20F$In9Mmb+ln7Q$LcajawWq.explanationDT#\a(dQ@(Xgj=3^.d204
     P21Ok6U KC2023 11 20[M#%4T,E%nC3q63bpwmjZ%1JBDcQ.%f5]k#kQIqEl^qLN^iE5\io204

Station data:
(204) Schiaparelli Observatory  (N45.867930 E8.770800)  Italy.  Observer L.
   Buzzi. 0.60-m f/4.64 Newtonian + CCD0.84-m f/3.5 reflector + CCD.
(F51) Pan-STARRS 1, Haleakala  (N20.707234 W156.255910)  US/Hawaii.
   Observers J. Bulger, T. Lowe, A. Schultz, M. Willman. Measurers K.
   Chambers, S. Chastel, T. de Boer, L. Denneau, J. Fairlamb, H. Flewelling,
   M. Huber, C.-C. Lin, E. Magnier, Y. Ramanjooloo, R. Wainscoat, R. Weryk.
   1.8-m Ritchey-Chrétien + CCD.
(F52) Pan-STARRS 2, Haleakala  (N20.707382 W156.255910)  US/Hawaii.
   Observers J. Bulger, T. Dukes, T. Lowe, A. Schultz, M. Willman. Measurers
   K. Chambers, S. Chastel, T. de Boer, L. Denneau, J. Fairlamb, H.
   Flewelling, M. Huber, C.-C. Lin, E. Magnier, Y. Ramanjooloo, R. Wainscoat,
   R. Weryk. 1.8-m Ritchey-Chrétien + CCD.
(H21) Astronomical Research Observatory, Westfield  (N39.483054 W87.968270)
   US/Illinois.  Observer R. Holmes. Measurers S. Foglia, L. Buzzi, T.
   Linder, R. Holmes. 0.76-m f/3.0 astrograph + CCD0.81-m f/4.0 astrograph +
   CCD0.61-m f/4.5 astrograph + CCD0.40-m f/5.32 astrograph + CCD.

Orbital elements:  P21Ok6U
   Perihelion 2023 Dec 31.97173 +/- 0.663 TT = 23:19:17 (JD 2460310.47173)
Epoch 2023 Nov 20.0 TT = JDT 2460268.5   Earth MOID: 0.1567   Ma: 0.0521
M 345.67418588 +/- 0.46             (J2000 ecliptic)             AutoNEOCP
n   0.34132051 +/- 0.00816          Peri.   41.27515 +/- 0.6
a   2.02781245 +/- 0.0323           Node    67.44973 +/- 0.11
e   0.4428623 +/- 0.00777           Incl.    4.79759 +/- 0.052
P   2.89                   H 21.48  G  0.15   U  9.5
q 1.12977058 +/- 0.00287    Q 2.92585432 +/- 0.0624
From 11 observations 2023 Nov. 18-20 (40.3 hr); mean residual 0".17
Residuals in arcseconds: 
231118 F52  .10+  .03-    231118 F51  .44+  .04+    231119 H21  .21-  .00     
231118 F52  .03+  .01-    231118 F51  .39-  .02-    231120 204  .04+  .05-    
231118 F52  .13-  .11+    231119 H21  .01-  .18-    231120 204  .05-  .22+    
231118 F52  .07-  .07-    231119 H21  .24+  .23-    

Ephemerides (geocentric):
Date (UTC) HH   RA             Dec           delta  r     elong  mag " sig PA
---- --------  ------------   ------------  ------ ------ -----  --- --------
2023 11 21 06  07 30 04.496   +22 46 49.39  .31940 1.2098 127.6 21.0 .663 112
2023 11 21 07  07 30 15.349   +22 47 09.27  .31921 1.2096 127.6 21.0 .695 111
2023 11 21 08  07 30 26.209   +22 47 29.14  .31901 1.2095 127.6 21.0 .729 111
2023 11 21 09  07 30 37.074   +22 47 49.01  .31881 1.2093 127.6 21.0 .763 110
2023 11 21 10  07 30 47.945   +22 48 08.87  .31861 1.2092 127.6 21.0 .798 110
2023 11 21 11  07 30 58.821   +22 48 28.73  .31842 1.2090 127.6 21.0 .834 109
2023 11 21 12  07 31 09.703   +22 48 48.59  .31822 1.2089 127.6 21.0 .871 109
2023 11 21 13  07 31 20.591   +22 49 08.44  .31802 1.2087 127.6 21.0 .909 108
2023 11 21 14  07 31 31.484   +22 49 28.28  .31783 1.2086 127.7 21.0 .947 108
2023 11 21 15  07 31 42.383   +22 49 48.12  .31763 1.2084 127.7 21.0 .986 107
2023 11 21 16  07 31 53.288   +22 50 07.96  .31743 1.2082 127.7 21.0 1.03 107
2023 11 21 17  07 32 04.199   +22 50 27.79  .31724 1.2081 127.7 21.0 1.07 106
2023 11 21 18  07 32 15.115   +22 50 47.62  .31704 1.2079 127.7 21.0 1.11 106
2023 11 21 19  07 32 26.037   +22 51 07.44  .31685 1.2078 127.7 21.0 1.15 106
2023 11 21 20  07 32 36.964   +22 51 27.26  .31665 1.2076 127.7 21.0 1.19 105
2023 11 21 21  07 32 47.897   +22 51 47.07  .31646 1.2075 127.7 21.0 1.24 105
2023 11 21 22  07 32 58.836   +22 52 06.88  .31626 1.2073 127.7 21.0 1.28 105
2023 11 21 23  07 33 09.781   +22 52 26.68  .31607 1.2072 127.7 21.0 1.33 104
2023 11 22 00  07 33 20.731   +22 52 46.47  .31587 1.2070 127.7 21.0 1.38 104
2023 11 22 01  07 33 31.687   +22 53 06.27  .31568 1.2069 127.7 21.0 1.42 104
2023 11 22 02  07 33 42.648   +22 53 26.05  .31548 1.2067 127.7 21.0 1.47 104
2023 11 22 03  07 33 53.615   +22 53 45.83  .31529 1.2066 127.7 21.0 1.52 103
2023 11 22 04  07 34 04.588   +22 54 05.61  .31510 1.2064 127.7 21.0 1.57 103
2023 11 22 05  07 34 15.567   +22 54 25.38  .31490 1.2063 127.7 21.0 1.62 103
2023 11 22 06  07 34 26.551   +22 54 45.14  .31471 1.2061 127.7 21.0 1.67 103
2023 11 22 07  07 34 37.541   +22 55 04.90  .31452 1.2060 127.7 21.0 1.72 103
2023 11 22 08  07 34 48.537   +22 55 24.65  .31433 1.2058 127.7 21.0 1.78 102
2023 11 22 09  07 34 59.538   +22 55 44.40  .31413 1.2057 127.7 21.0 1.83 102
2023 11 22 10  07 35 10.545   +22 56 04.14  .31394 1.2055 127.7 21.0 1.88 102
2023 11 22 11  07 35 21.557   +22 56 23.87  .31375 1.2054 127.7 21.0 1.94 102
2023 11 22 12  07 35 32.575   +22 56 43.60  .31356 1.2052 127.7 21.0 1.99 102
2023 11 22 13  07 35 43.599   +22 57 03.33  .31337 1.2051 127.7 21.0 2.05 102
2023 11 22 14  07 35 54.629   +22 57 23.04  .31318 1.2049 127.7 21.0 2.11 101
2023 11 22 15  07 36 05.664   +22 57 42.76  .31298 1.2048 127.7 21.0 2.17 101
2023 11 22 16  07 36 16.704   +22 58 02.46  .31279 1.2046 127.7 21.0 2.23 101
2023 11 22 17  07 36 27.751   +22 58 22.16  .31260 1.2045 127.7 21.0 2.29 101
2023 11 22 18  07 36 38.803   +22 58 41.85  .31241 1.2043 127.7 21.0 2.35 101
2023 11 22 19  07 36 49.861   +22 59 01.54  .31222 1.2042 127.7 21.0 2.41 101
2023 11 22 20  07 37 00.924   +22 59 21.22  .31203 1.2040 127.7 21.0 2.47 101
2023 11 22 21  07 37 11.993   +22 59 40.89  .31184 1.2039 127.7 21.0 2.54 100
2023 11 22 22  07 37 23.068   +23 00 00.56  .31165 1.2037 127.7 20.9 2.60 100
2023 11 22 23  07 37 34.148   +23 00 20.22  .31147 1.2036 127.7 20.9 2.66 100
2023 11 23 00  07 37 45.234   +23 00 39.87  .31128 1.2034 127.7 20.9 2.73 100
2023 11 23 01  07 37 56.325   +23 00 59.52  .31109 1.2033 127.7 20.9 2.80 100
2023 11 23 02  07 38 07.423   +23 01 19.15  .31090 1.2031 127.7 20.9 2.86 100
2023 11 23 03  07 38 18.525   +23 01 38.79  .31071 1.2030 127.7 20.9 2.93 100
2023 11 23 04  07 38 29.634   +23 01 58.41  .31052 1.2028 127.7 20.9 3.00 100
2023 11 23 05  07 38 40.748   +23 02 18.03  .31034 1.2027 127.7 20.9 3.07 100